C31FR-13 Weather Reports


Display with metric or nautical units.
time (UTC)temp
F
wind
direction
speed
MPH
gust
MPH
rain 1hr
in
rain 24hr
in
rain mn
in
humidity
%
barometer
mb
20260831210602 73 0.0 0.0 0.00 0.00 0.00 51 1023.3
20260831204605 74 0.0 0.0 0.00 0.00 0.00 49 1023.2
20260831202602 75 0.0 0.0 0.00 0.00 0.00 47 1022.8
20260831200607 76 0.0 0.0 0.00 0.00 0.00 46 1022.5
20260831195602 76 0.0 0.0 0.00 0.00 0.00 45 1022.3
20260831194102 76 0.0 0.0 0.00 0.00 0.00 44 1022.1
20260831192602 76 0.0 0.0 0.00 0.00 0.00 44 1021.9
20260831192102 76 0.0 0.0 0.00 0.00 0.00 43 1021.8
20260831185602 77 0.0 0.0 0.00 0.00 0.00 42 1021.5
20260831184603 77 0.0 0.0 0.00 0.00 0.00 42 1021.3
20260831183602 77 0.0 0.0 0.00 0.00 0.00 42 1021.2
20260831182102 78 0.0 0.0 0.00 0.00 0.00 41 1021.0
20260831181602 78 0.0 0.0 0.00 0.00 0.00 41 1021.0
20260831180602 79 0.0 0.0 0.00 0.00 0.00 40 1020.8
20260831175102 79 0.0 0.0 0.00 0.00 0.00 40 1020.7
20260831174603 79 0.0 0.0 0.00 0.00 0.00 40 1020.6
20260831170602 83 0.0 0.0 0.00 0.00 0.00 35 1020.3
20260831165102 83 0.0 0.0 0.00 0.00 0.00 34 1020.2
20260831163102 84 0.0 0.0 0.00 0.00 0.00 30 1020.2
20260831162602 84 0.0 0.0 0.00 0.00 0.00 31 1020.2
20260831162102 84 0.0 0.0 0.00 0.00 0.00 31 1020.2
20260831161102 84 0.0 0.0 0.00 0.00 0.00 30 1020.3
20260831152602 83 0.0 0.0 0.00 0.00 0.00 31 1020.5
20260831151602 83 0.0 0.0 0.00 0.00 0.00 31 1020.4
20260831145102 82 0.0 0.0 0.00 0.00 0.00 31 1020.4
20260831143102 82 0.0 0.0 0.00 0.00 0.00 32 1020.6
20260831135602 81 0.0 0.0 0.00 0.00 0.00 34 1020.8
20260831134602 81 0.0 0.0 0.00 0.00 0.00 35 1020.8
20260831132602 80 0.0 0.0 0.00 0.00 0.00 36 1021.0
20260831131602 80 0.0 0.0 0.00 0.00 0.00 36 1021.1
20260831124602 80 0.0 0.0 0.00 0.00 0.00 36 1021.1
20260831123602 79 0.0 0.0 0.00 0.00 0.00 36 1021.2
20260831122602 79 0.0 0.0 0.00 0.00 0.00 37 1021.3
20260831120602 78 0.0 0.0 0.00 0.00 0.00 37 1021.4
20260831115602 78 0.0 0.0 0.00 0.00 0.00 37 1021.5
20260831113102 77 0.0 0.0 0.00 0.00 0.00 38 1021.6
20260831103102 75 0.0 0.0 0.00 0.00 0.00 38 1021.8
20260831102602 75 0.0 0.0 0.00 0.00 0.00 38 1021.8
20260830225603 71 0.0 0.0 0.00 0.00 0.00 52 1021.9
20260830223102 70 0.0 0.0 0.00 0.00 0.00 52 1021.6
20260830222602 71 0.0 0.0 0.00 0.00 0.00 52 1021.5
20260830214602 72 0.0 0.0 0.00 0.00 0.00 49 1021.2
20260830213603 71 0.0 0.0 0.00 0.00 0.00 49 1021.2
20260830213102 71 0.0 0.0 0.00 0.00 0.00 49 1021.1